Regional Weather Roundup
Issued by NWS

Home | Current Version | Previous Version | Text Only | Print | Product List | Glossary Off
Versions: 1 2 3 4 5 6 7 8 9 10 11 12 13 14 15 16 17 18 19 20 21 22 23 24 25 26 27 28 29 30 31 32 33 34 35 36 37 38 39 40 41 42 43 44 45 46 47 48 49 50

000
ASUS44 KFWD 021315
RWRTX
NORTH TEXAS HOURLY WEATHER ROUNDUP
NATIONAL WEATHER SERVICE FORT WORTH TX
800 AM CDT THU JUL 02 2015

NOTE: "FAIR" INDICATES FEW OR NO CLOUDS BELOW 12,000 FEET WITH NO
SIGNIFICANT WEATHER AND/OR OBSTRUCTIONS TO VISIBILITY.

TXZ118-119-021400-
DALLAS/FORT WORTH METROPLEX

CITY           SKY/WX    TMP DP  RH WIND       PRES   REMARKS
DFW AIRPORT    PTSUNNY   77  68  73 S15       29.97S
DALLAS LOVE    PTSUNNY   77  68  73 SW10      29.98R
FTW MEACHAM    MOSUNNY   75  69  81 S12       29.98R
DAL-EXECUTIVE  MOSUNNY   74  68  81 VRB7      29.99R
FTW-ALLIANCE   MOSUNNY   75  69  81 S10       29.97R
FTW-NAS-JRB    PTSUNNY   75  69  81 S13       29.99R
FTW-SPINKS     SUNNY     75  70  83 S9          N/A
ARLINGTON      MOSUNNY   75  68  78 S9        29.99R
GRAND PRAIRIE  SUNNY     73  72  94 S9        30.01R
ADDISON        PTSUNNY   77  68  73 S7G18     30.00R
MESQUITE       SUNNY     72  72 100 S9        30.00R
$$

TXZ091>094-102>105-117-120-121-131>134-021400-
NORTH CENTRAL TEXAS

CITY           SKY/WX    TMP DP  RH WIND       PRES   REMARKS
DENTON         MOSUNNY   76  69  79 S13       29.98R
MCKINNEY       SUNNY     78  67  68 SW13      29.98R
TERRELL        MOSUNNY   72  70  93 S9        30.00R
$$

TXZ083>090-098>101-113>116-127>130-139>142-154-155-021400-
WESTERN NORTH TEXAS

CITY           SKY/WX    TMP DP  RH WIND       PRES   REMARKS
WICHITA FALLS  PTSUNNY   77  67  71 MISG      29.95R
ABILENE        MOSUNNY   73  66  78 S9        30.02R
ABILENE-DYESS  MOSUNNY   73  66  77 SW10      30.00R
MINERAL WELLS  SUNNY     72  68  87 S7        29.98R
BROWNWOOD      SUNNY     72  66  83 S7        30.04R
$$

TXZ143>147-156>162-174-175-021400-
CENTRAL TEXAS

CITY           SKY/WX    TMP DP  RH WIND       PRES   REMARKS
WACO           MOSUNNY   73  69  87 S16       30.01R
WACO-TSTC      PTSUNNY   72  70  94 S9        30.02R
WACO-MCGREGOR  PTSUNNY   72  66  83 S10G16    30.03R
CORSICANA      PTSUNNY   73  70  90 S10       30.03R
TEMPLE         CLOUDY    72  66  83 S13       30.01S
KILLEEN        MOSUNNY   70  69  95 S9        30.02R
KILLEEN-SKYLRK SUNNY     72  66  83 S10       30.02R
FORT HOOD      MOSUNNY   71  69  93 S10       30.02R
$$

TXZ095>097-106>112-122>126-135>138-148>153-164>167-021400-
EAST TEXAS

CITY           SKY/WX    TMP DP  RH WIND       PRES   REMARKS
PARIS          MOSUNNY   75  64  69 SW17G23   29.97S
TYLER          MOSUNNY   74  69  85 SW9       30.02R
LONGVIEW       PTSUNNY   77  69  76 SW9       30.01R
NACOGDOCHES    PTSUNNY  N/A N/A N/A SW6       30.03S
LUFKIN         PTSUNNY   74  70  87 S5        30.04R
$$

SUPPLEMENTAL OBSERVATIONS (CENTRAL)

CITY           SKY/WX    TMP DP  RH WIND       PRES   REMARKS
LAKE TEXOMA      N/A     77  68  73 SW15        N/A
CADDO GRASSLND   N/A     75  70  83 SW9         N/A
PAT MAYSE LAKE   N/A     75  72  88 S16         N/A
GREENVILLE       N/A     75  68  78 SW10        N/A
CEDAR HILL       N/A     75  66  73 S8          N/A
LAKE LIMESTONE   N/A     72  68  88 S6          N/A
MCGREGOR         N/A     72  68  88 S9G17       N/A
TEMPLE           N/A     72  68  88 S12         N/A
$$

SUPPLEMENTAL OBSERVATIONS (WEST)

CITY           SKY/WX    TMP DP  RH WIND       PRES   REMARKS
MILLERS CREEK    N/A     75  66  73 SW9         N/A
POSSUM KINGDOM   N/A     75  66  73 S12         N/A
LBJ GRASSLAND    N/A     73  68  83 S6          N/A
GRANBURY         N/A     73  66  78 S9          N/A
COMANCHE         N/A     72  66  83 S10         N/A
HAMBY            N/A     73  64  73 SW9         N/A
IVIE RESERVOIR   N/A     72  64  78 S7          N/A
COLORADO BEND    N/A     72  64  78 SW7         N/A
$$

SUPPLEMENTAL OBSERVATIONS (EAST)

CITY           SKY/WX    TMP DP  RH WIND       PRES   REMARKS
TEXARKANA        N/A     75  66  73 SW6         N/A
LINDEN           N/A     75  66  73 W5          N/A
CADDO LAKE       N/A     73  70  88 SW3         N/A
HENDERSON        N/A     73  68  83 SW8         N/A
LUFKIN           N/A     73  70  88 MISG        N/A
N SABINE NF      N/A     73  70  88 MISG        N/A
$$

SUPPLEMENTAL OBSERVATIONS ARE A COLLECTION OF AUTOMATED INSTRUMENTS
THAT ARE MAINTAINED BY A VARIETY OF FEDERAL AND STATE AGENCIES.
CERTAIN ELEMENTS...SUCH AS HUMIDITY VALUES AND SUSTAINED WIND
SPEEDS...MAY BE APPROXIMATED.



USA.gov is the U.S. government's official web portal to all federal, state and local government web resources and services.